Flag for Canada Weather past 2 weeks in Labrador City, Newfoundland and Labrador, Canada

Now
50 °F

Partly sunny.


Feels Like: 48 °F
Forecast: 42 / 61 °F
Wind: 5 mph from Northwest

Location: Wabush Lake

Current Time: Jul 24, 2014 at 11:08:09 AM

Latest Report: Jul 24, 2014 at 10:00 AM


Visibility: 15 mi

Pressure: 29.80 "Hg

Humidity: 67%

Dew point: 39 °F

Location of Labrador CityLocation

Historic Weather in Labrador City — Graph

°F

Labrador City temperature yesterday

Maximum temperature yesterday: 64 °F (at 10:00 AM)
Minimum temperature yesterday: 50 °F (at 11:00 PM)
Average temperature yesterday: 57 °F

Past Weeks' High & Low Weather Summary

 TemperatureHumidityPressure
High82 °F (Jul 21, 5:00 PM)100% (Jul 13, 12:00 AM)30.19 "Hg (Jul 13, 12:00 AM)
Low43 °F (Jul 24, 5:00 AM)32% (Jul 20, 7:00 PM)29.31 "Hg (Jul 23, 10:00 AM)
Average61 °F75%29.83 "Hg
* Reported Jul 9 10:00 AM — Jul 24 9:00 AM, Labrador City, Weather by CustomWeather, © 2014

Note: Actual official high and low records may vary slightly from our data, if they occured in-between our weather recording intervals... More about our weather records

Advertising

Labrador City weather history for previous 24 hours

 ConditionsComfort  
Time TempWeatherWind HumidityBarometerVisibility
9:00 AM
Jul 24
50 °FPartly sunny.8 mph67%29.79 "Hg15 mi
8:00 AM48 °FPassing clouds.8 mph71%29.79 "Hg15 mi
7:00 AM45 °FPassing clouds.6 mph81%29.78 "Hg15 mi
6:00 AM45 °FPassing clouds.5 mph81%29.78 "Hg15 mi
5:00 AM43 °FPassing clouds.5 mph87%29.78 "Hg15 mi
4:00 AM45 °FPassing clouds.8 mph81%29.77 "Hg15 mi
3:00 AM46 °FOvercast.9 mph76%29.77 "Hg15 mi
2:00 AM46 °FOvercast.12 mph82%29.76 "Hg15 mi
1:00 AM48 °FOvercast.13 mph71%29.75 "Hg15 mi
12:00 AM48 °FPartly sunny.10 mph71%29.75 "Hg15 mi
11:00 PM
Jul 23
50 °FBroken clouds.8 mph71%29.73 "Hg15 mi
10:00 PM52 °FMostly cloudy.14 mph72%29.71 "Hg15 mi
9:00 PM52 °FPartly sunny.14 mph77%29.69 "Hg15 mi
8:00 PM54 °FPartly sunny.16 mph72%29.67 "Hg15 mi
7:50 PM55 °FPartly sunny.9 mph72%29.67 "Hg15 mi
7:00 PM54 °FSprinkles. Broken clouds.10 mph82%29.65 "Hg15 mi
6:00 PM55 °FMostly cloudy.20 mph77%29.62 "Hg15 mi
5:00 PM55 °FOvercast.17 mph82%29.59 "Hg15 mi
4:00 PM57 °FSprinkles. More clouds than sun.15 mph82%29.55 "Hg15 mi
3:00 PM57 °FSprinkles. Mostly cloudy.18 mph82%29.50 "Hg8 mi
2:00 PM59 °FSprinkles. Fog.15 mph82%29.46 "Hg6 mi
1:00 PM59 °FSprinkles. Overcast.16 mph88%29.41 "Hg8 mi
12:00 PM59 °FSprinkles. Overcast.12 mph94%29.37 "Hg8 mi
11:00 AM59 °FSprinkles. More clouds than sun.15 mph94%29.34 "Hg10 mi
Weather by CustomWeather, © 2014

See weather overviewHow to use our weather pages